Torna al catalogo

STARLINK-4673

AttivoComunicazioniVLEO
NORAD 53589·PAYLOAD·🇺🇸 United States

Lanciato Aug 28, 2022 da Cape Canaveral Space Force Station

Loading…

Prossimi Passaggi (prossime 24 ore)

TLE

AggiornatoSource: CelesTrak SupGP

Epoca: Sep 15, 2026, 01:59 UTC

1 53589C 22104B   26258.08312500  .00018180  00000+0  53715-3 0  2580
2 53589  53.1581  98.8502 0001103  83.3874 230.8176 15.34380626    11

Traccia STARLINK-4673 in tempo reale con AllMySat

Download on the App Store